Terminal Aerodrome Forecast
Issued by NWS

Home | Current Version | Previous Version | Graphics & Text | Print | Product List | Glossary On
Versions: 1 2 3 4 5 6 7 8 9 10 11 12 13 14 15
000
FTUS43 KMPX 112000 AAA
TAFRWF
TAF AMD
KRWF 112012Z 1120/1218 23012KT P6SM SCT030 BKN050
     FM120000 19007KT P6SM SCT050
     FM120700 30004KT P6SM BKN200
     FM121400 30006KT P6SM SCT040 BKN150
      TEMPO 1215/1217 5SM -SHRA BKN050 OVC090=

USA.gov is the U.S. government's official web portal to all federal, state and local government web resources and services.